Probability
0 2 6 13 19 21 22 21 18 18 21 25 27 26 25 22 16 10 4 1 0 0 0 1 1 1 1 0 0 0 0 0 0 0 0 0 0 0 0 0 0 0 0
0 1 4 10 15 18 19 19 19 19 20 24 27 27 26 25 18 10 4 1 1 1 0 1 3 3 1 0 0 0 0 0 0 0 0 0 0 0 0 0 0 0 0
0 0 2 6 11 13 14 15 17 18 19 22 25 25 25 23 17 10 7 5 3 3 2 3 4 4 2 1 1 1 1 0 0 0 0 0 0 0 0 0 0 0 0
0 0 1 4 7 8 9 10 11 12 13 16 19 20 19 18 14 11 10 8 6 5 5 5 6 5 4 4 3 3 2 1 0 0 0 0 0 0 0 0 0 0 0
0 0 1 2 3 3 4 4 4 5 6 8 11 13 13 13 12 10 9 8 7 6 6 7 7 7 6 5 4 3 2 1 0 0 0 0 0 0 0 0 0 0 0
0 0 0 1 1 1 1 1 1 1 2 3 5 7 8 8 7 6 6 6 6 5 5 6 6 6 4 2 3 2 1 1 0 0 0 0 0 0 0 0 0 0 0
0 0 0 0 0 0 0 0 0 0 1 1 2 3 3 3 3 3 3 3 3 2 3 3 3 3 1 0 1 1 0 0 0 0 0 0 0 0 0 0 0 0 0
0 0 0 0 0 0 0 0 0 0 0 0 1 1 1 1 1 1 1 1 1 0 1 1 1 1 0 0 0 0 0 0 0 0 0 0 0 0 0 0 0 0 0
0 0 0 0 0 0 0 0 0 0 0 0 0 0 0 0 0 0 0 0 0 0 0 0 0 0 0 0 0 0 0 0 0 0 0 0 0 0 0 0 0 0 0
0 0 0 0 0 0 0 0 0 0 0 0 0 0 0 0 0 0 0 0 0 0 0 0 0 0 0 0 0 0 0 0 0 0 0 0 0 0 0 0 0 0 0
0 0 0 0 0 0 0 0 0 0 0 0 0 0 0 0 0 0 0 0 0 0 0 0 0 0 0 0 0 0 0 0 0 0 0 0 0 0 0 0 0 0 0
0 0 0 0 0 0 0 0 0 0 0 0 0 0 0 0 0 0 0 0 0 0 0 0 0 0 0 0 0 0 0 0 0 0 0 0 0 0 0 0 0 0 0
0 0 0 0 0 0 0 0 0 0 0 0 0 0 0 0 0 0 0 0 0 0 0 0 0 0 0 0 0 0 0 0 0 0 0 0 0 0 0 0 0 0 0
0 0 0 0 0 0 0 0 0 0 0 0 0 0 0 0 0 0 0 0 0 0 0 0 0 0 0 0 0 0 0 0 0 0 0 0 0 0 0 0 0 0 0
0 0 0 0 0 0 0 0 0 0 0 0 0 0 0 0 0 0 0 0 0 0 0 0 0 0 0 0 0 0 0 0 0 0 0 0 0 0 0 0 0 0 0
0 0 0 0 0 0 0 0 0 0 0 0 0 0 0 0 0 0 0 0 0 0 0 0 0 0 0 0 0 0 0 0 0 0 0 0 0 0 0 0 0 0 0
0 0 0 0 0 0 0 0 0 0 0 0 0 0 0 0 0 0 0 0 0 0 0 0 0 0 0 0 0 0 0 0 0 0 0 0 0 0 0 0 0 0 0
0 0 0 0 0 0 0 0 0 0 0 0 0 0 0 0 0 0 0 0 0 0 0 0 0 0 0 0 0 0 0 0 0 0 0 0 0 0 0 0 0 0 0
0 0 0 0 0 0 0 0 0 0 0 0 0 0 0 0 0 0 0 0 0 0 0 0 0 0 0 0 0 0 0 0 0 0 0 0 0 0 0 0 0 0 0
0 0 0 0 0 0 0 0 0 0 0 0 0 0 0 0 0 0 0 0 0 0 0 0 0 0 0 0 0 0 0 0 0 0 0 0 0 0 0 0 0 0 0
0 0 0 0 0 0 0 0 0 0 0 0 0 0 0 0 0 0 0 0 0 0 0 0 0 0 0 0 0 0 0 0 0 0 0 0 0 0 0 0 0 0 0
0 0 0 0 0 0 0 0 0 0 0 0 0 0 0 0 0 0 0 0 0 0 0 0 0 0 0 0 0 0 0 0 0 0 0 0 0 0 0 0 0 0 0
0 0 0 0 0 0 0 0 0 0 0 0 0 0 0 0 0 0 0 0 0 0 0 0 0 0 0 0 0 0 0 0 0 0 0 0 0 0 0 0 0 0 0
0 0 0 0 0 0 0 0 0 0 0 0 0 0 0 0 0 0 0 0 0 0 0 0 0 0 0 0 0 0 0 0 0 0 0 0 0 0 0 0 0 0 0
0 0 0 0 0 0 0 0 0 0 0 0 0 0 0 0 0 0 0 0 0 0 0 0 0 0 0 0 0 0 0 0 0 0 0 0 0 0 0 0 0 0 0
0 0 0 0 0 0 0 0 0 0 0 0 0 0 0 0 0 0 0 0 0 0 0 0 0 0 0 0 0 0 0 0 0 0 0 0 0 0 0 0 0 0 0
Wind_Speed
6 4 5 6 6 7 7 8 8 8 6 5 5 5 5 5 4 4 5 5 5 6 6 5 6 6 6 7 8 6 7 6 5 4 6 7 9 9 6 6 5 5 4
8 6 6 6 7 7 7 7 7 6 6 5 4 3 3 3 3 3 3 4 4 5 5 6 5 5 5 7 7 6 5 5 4 5 5 5 6 6 4 4 3 4 3
11 9 8 7 7 7 7 6 6 6 5 5 4 3 3 2 3 4 3 2 3 3 4 5 5 5 5 5 6 6 8 6 5 6 6 5 5 3 3 3 2 2 2
11 10 9 8 8 6 5 6 6 5 4 4 5 6 5 5 4 3 2 2 1 2 2 3 4 4 4 5 6 6 6 7 6 5 6 7 6 5 4 2 2 1 2
12 10 9 8 7 7 6 5 5 5 4 3 4 5 4 3 2 3 3 2 1 0 1 2 3 3 3 4 5 5 5 5 6 5 4 6 6 7 6 6 4 2 1
10 9 8 8 7 7 6 6 6 5 4 4 4 4 5 4 4 4 3 2 1 0 1 2 2 2 2 3 4 4 4 4 5 5 4 4 4 4 5 6 5 3 1
9 9 10 10 9 9 8 7 7 6 5 4 4 3 3 3 3 3 2 2 1 1 1 2 2 2 2 2 3 3 3 3 4 4 3 3 3 2 3 4 4 3 1
8 9 11 10 10 10 9 8 7 7 5 5 4 3 3 1 1 1 0 1 0 1 2 2 2 2 2 2 2 1 1 1 1 1 1 0 1 1 1 2 2 3 2
7 9 10 10 10 10 9 8 8 7 6 5 4 4 3 2 2 2 1 1 1 1 1 2 2 2 2 2 1 0 1 1 1 2 2 1 1 1 1 1 2 3 3
7 8 9 10 9 9 8 7 7 7 6 5 4 3 3 3 2 2 1 1 1 1 1 1 1 2 2 1 1 1 2 3 3 2 3 3 2 2 2 1 1 1 2
7 8 9 9 9 8 8 8 7 7 6 5 4 4 3 3 2 2 1 1 1 1 1 1 1 2 2 2 2 3 3 4 4 4 4 4 4 3 3 2 2 1 1
6 8 9 9 9 9 8 8 7 7 6 5 5 4 4 3 2 2 2 1 1 2 2 1 2 2 2 3 3 4 4 4 5 5 5 5 4 5 4 3 3 3 2
7 8 9 10 10 9 9 8 8 7 6 6 5 5 4 4 3 3 2 2 2 2 2 2 3 3 3 4 4 5 5 6 6 5 6 5 5 6 4 4 4 3 3
8 10 10 10 10 9 9 9 8 7 7 7 6 5 5 4 3 3 3 3 3 3 3 3 4 4 4 4 5 5 6 6 6 6 6 6 6 5 4 4 4 3 3
10 11 12 11 11 10 10 9 9 8 8 7 7 6 5 5 4 4 4 4 3 3 4 4 4 4 3 3 4 5 6 6 6 6 6 6 7 7 5 4 4 3 2
12 12 13 12 12 12 11 10 10 9 9 8 7 7 6 6 5 5 5 4 4 4 4 4 4 4 3 6 6 5 5 5 5 5 5 6 6 7 8 8 8 6 3
12 12 13 13 13 12 12 12 11 10 10 9 8 8 7 7 6 6 6 5 5 4 4 4 4 4 6 7 7 7 5 5 4 4 4 3 4 4 4 6 6 7 7
11 11 11 11 11 10 10 10 10 11 10 9 9 8 8 7 7 7 6 6 5 4 4 4 4 4 5 7 7 7 4 4 4 3 3 3 3 3 3 3 3 4 4
9 8 9 9 9 10 11 11 11 11 10 10 10 9 9 8 8 7 7 6 5 5 4 4 4 4 5 6 7 6 4 3 3 2 2 1 2 3 2 2 2 2 2
5 5 5 7 8 10 11 11 11 11 11 10 10 9 9 9 8 8 7 6 5 5 5 4 4 4 4 6 6 6 2 3 3 3 2 1 0 2 2 1 1 1 1
2 4 6 6 7 9 11 11 10 11 9 9 9 9 9 8 8 7 7 6 6 6 5 5 4 4 4 6 7 6 3 3 3 2 2 2 2 2 2 2 2 1 1
2 3 5 5 6 8 10 9 9 8 8 9 9 9 8 7 7 7 7 7 7 7 6 5 5 4 4 5 7 8 6 4 3 3 2 2 3 3 3 3 2 2 3
2 3 4 5 5 7 8 8 7 8 9 9 9 9 8 8 8 8 8 7 7 6 6 6 5 5 5 5 8 9 8 8 5 3 3 3 4 4 4 4 4 3 3
2 3 4 5 5 7 7 7 7 9 9 9 9 8 8 8 8 7 7 7 7 7 6 6 6 5 5 6 6 6 6 7 6 4 5 6 5 5 4 4 4 4 3
3 3 4 5 5 6 6 6 7 9 9 9 8 8 8 8 7 7 7 8 8 8 8 7 6 6 6 8 10 7 6 5 5 5 4 4 4 5 5 4 4 4 4
3 3 4 4 4 5 6 7 8 9 9 8 8 7 7 6 6 7 6 9 9 11 13 10 8 7 8 8 12 13 12 11 9 7 5 6 5 5 5 5 5 5 5
Wind_Direction
224 206 206 201 196 197 199 198 197 198 197 194 199 204 208 208 210 217 227 230 235 234 232 238 243 237 239 244 245 246 250 248 249 259 269 264 257 257 258 259 266 267 271
218 207 202 195 195 192 192 192 191 191 195 198 196 201 199 210 211 205 217 232 238 241 239 241 245 240 245 248 248 242 245 247 229 243 270 278 266 232 238 252 263 280 286
227 213 203 195 190 187 185 184 182 183 189 192 185 170 176 189 196 202 205 222 239 242 243 247 249 247 243 247 246 241 242 251 241 233 249 265 273 296 219 230 259 285 302
229 221 208 199 189 179 171 174 167 164 169 186 196 199 207 215 214 210 203 201 219 246 257 261 260 256 251 252 254 249 248 254 252 237 238 254 278 277 278 227 226 297 323
226 219 207 198 181 167 162 158 152 145 147 166 187 200 209 213 198 201 205 200 179 288 307 294 280 272 267 265 265 261 250 247 252 249 243 243 249 247 258 270 260 247 329
226 219 201 184 172 161 155 153 148 136 137 146 160 180 188 192 197 206 212 210 202 211 348 328 304 295 289 283 277 273 267 260 258 258 253 250 248 242 244 257 264 267 275
217 206 194 185 175 168 161 158 151 139 132 129 132 142 161 184 203 212 217 221 219 226 353 338 321 314 307 299 290 280 274 273 265 263 259 258 263 271 258 260 265 261 249
216 203 195 186 176 170 165 161 155 144 137 130 121 118 124 136 133 147 203 230 304 10 3 352 346 341 332 318 304 293 298 311 300 307 290 277 332 313 274 264 257 253 232
214 201 189 182 174 170 168 163 156 148 142 135 131 122 115 115 118 119 109 83 54 26 7 4 359 1 357 349 337 24 44 57 53 52 62 69 49 32 8 330 273 260 249
205 193 184 178 173 166 160 159 158 151 145 142 132 122 117 113 119 125 117 97 61 39 16 17 18 21 27 33 61 73 72 91 75 67 78 74 60 57 42 35 16 293 269
198 187 180 174 167 162 162 162 159 156 152 148 141 140 130 126 129 124 110 95 78 61 49 43 46 51 53 61 87 90 91 94 88 82 84 79 70 72 58 54 57 48 353
191 183 178 173 172 171 171 169 168 166 159 153 152 145 140 144 147 134 118 108 100 82 74 79 82 74 69 73 91 95 91 94 92 88 88 82 78 73 62 58 60 57 38
190 186 184 184 182 180 178 176 175 170 163 162 162 159 159 161 154 141 127 121 115 108 99 96 91 87 82 83 87 94 92 90 87 86 86 82 79 73 64 60 61 57 55
205 198 195 194 190 187 183 181 178 172 168 169 172 172 169 163 151 143 139 131 124 116 108 100 95 93 93 93 97 100 100 95 86 80 78 76 76 76 75 67 63 64 74
217 208 204 199 193 190 188 185 181 176 173 175 177 173 166 159 155 154 147 138 130 121 118 116 112 107 102 100 108 107 105 102 94 83 78 74 71 66 64 62 61 62 72
226 216 211 205 200 196 191 186 184 179 177 180 177 168 169 167 166 162 155 147 139 134 129 122 119 114 104 112 113 112 109 108 107 101 92 86 79 76 73 67 59 50 56
233 222 214 209 205 199 192 189 184 175 179 181 175 172 174 174 170 166 162 158 152 145 136 129 127 119 116 121 119 114 114 112 107 109 107 94 82 73 79 81 80 70 58
237 227 218 211 204 193 188 182 174 176 180 180 178 176 176 175 172 171 169 165 159 154 146 140 136 130 124 129 128 127 119 115 113 112 110 113 110 89 76 84 78 73 66
244 232 217 205 191 184 177 172 174 178 181 184 182 180 179 177 177 177 174 169 166 159 158 154 152 150 141 142 147 150 142 136 135 132 130 123 125 119 130 109 95 94 91
246 221 194 182 179 174 169 173 177 182 188 186 182 179 180 181 181 179 173 171 171 168 165 164 170 173 170 161 168 176 168 165 162 168 170 181 203 148 190 211 197 200 108
210 178 171 173 173 166 170 179 182 190 186 175 173 176 180 182 179 174 171 171 172 171 174 175 182 191 193 185 189 193 203 194 190 195 197 189 214 230 227 254 255 268 276
149 162 164 160 159 167 176 183 189 180 167 168 172 177 180 177 174 173 172 175 177 180 184 189 193 200 202 210 205 207 214 216 214 214 212 204 223 244 241 247 251 235 245
168 166 166 157 164 177 186 190 182 168 167 171 176 178 178 178 176 178 178 179 186 192 193 197 203 203 202 208 216 218 217 216 225 223 221 229 231 237 236 236 238 233 240
189 178 175 179 183 187 194 192 173 170 173 178 179 179 181 182 182 185 187 190 193 197 200 203 208 206 205 206 204 210 214 217 221 221 218 226 228 237 246 234 226 234 245
200 194 199 201 197 189 193 186 177 175 181 184 183 183 187 186 187 195 199 201 206 206 203 206 206 206 212 212 206 203 207 209 211 208 215 220 221 225 225 226 230 230 229
206 205 210 211 203 195 196 188 183 184 184 185 186 187 188 189 192 196 204 216 219 219 222 221 215 220 226 215 212 215 219 219 216 215 226 228 228 232 232 231 229 226 229